| time (UTC) | temp F | wind direction | speed knots | gust knots | rain 1hr in | rain 24hr in | rain mn in | humidity % | barometer mb |
| 20260505035230 | 64 | 181 | 4.3 | 6.1 | 0.00 | 0.00 | 0.00 | 10 | 1008.0 |
| 20260505034727 | 64 | 146 | 3.5 | 5.2 | 0.00 | 0.00 | 0.00 | 10 | 1008.2 |
| 20260505034224 | 64 | 185 | 3.5 | 4.3 | 0.00 | 0.00 | 0.00 | 10 | 1008.4 |
| 20260505033721 | 64 | 194 | 0.9 | 0.9 | 0.00 | 0.00 | 0.00 | 10 | 1008.0 |
| 20260505033219 | 65 | 196 | 1.7 | 1.7 | 0.00 | 0.00 | 0.00 | 10 | 1007.7 |
| 20260505032717 | 65 | 194 | 0.9 | 1.7 | 0.00 | 0.00 | 0.00 | 10 | 1007.8 |
| 20260505032212 | 65 | 170 | 1.7 | 1.7 | 0.00 | 0.00 | 0.00 | 10 | 1007.4 |
| 20260505031710 | 65 | 150 | 1.7 | 1.7 | 0.00 | 0.00 | 0.00 | 10 | 1007.6 |
| 20260505031206 | 65 | 186 | 0.9 | 0.9 | 0.00 | 0.00 | 0.00 | 10 | 1007.5 |
| 20260505030703 | 66 | 182 | 1.7 | 1.7 | 0.00 | 0.00 | 0.00 | 10 | 1007.4 |
| 20260505030159 | 66 | 186 | 1.7 | 1.7 | 0.00 | 0.00 | 0.00 | 10 | 1007.2 |
| 20260505025655 | 66 | 185 | 2.6 | 2.6 | 0.00 | 0.00 | 0.00 | 10 | 1007.0 |
| 20260505025153 | 67 | 187 | 2.6 | 2.6 | 0.00 | 0.00 | 0.00 | 10 | 1007.3 |
| 20260505024651 | 67 | 187 | 2.6 | 2.6 | 0.00 | 0.00 | 0.00 | 10 | 1007.0 |
| 20260505024147 | 67 | 194 | 4.3 | 6.1 | 0.00 | 0.00 | 0.00 | 10 | 1007.2 |
| 20260505023645 | 67 | 173 | 4.3 | 5.2 | 0.00 | 0.00 | 0.00 | 10 | 1007.2 |
| 20260505023143 | 67 | 201 | 2.6 | 6.1 | 0.00 | 0.00 | 0.00 | 10 | 1007.0 |
| 20260505022640 | 68 | 171 | 4.3 | 5.2 | 0.00 | 0.00 | 0.00 | 10 | 1007.3 |
| 20260505022137 | 68 | 184 | 1.7 | 1.7 | 0.00 | 0.00 | 0.00 | 10 | 1007.0 |
| 20260505021633 | 68 | 170 | 4.3 | 6.1 | 0.00 | 0.00 | 0.00 | 10 | 1006.9 |
| 20260505021125 | 69 | 181 | 9.6 | 11.3 | 0.00 | 0.00 | 0.00 | 10 | 1007.2 |
| 20260505020620 | 69 | 184 | 4.3 | 5.2 | 0.00 | 0.00 | 0.00 | 10 | 1006.9 |
| 20260505020116 | 70 | 199 | 2.6 | 2.6 | 0.00 | 0.00 | 0.00 | 10 | 1006.8 |
| 20260505015613 | 70 | 163 | 4.3 | 6.1 | 0.00 | 0.00 | 0.00 | 10 | 1006.7 |
| 20260505015110 | 70 | 195 | 6.1 | 7.8 | 0.00 | 0.00 | 0.00 | 10 | 1007.2 |
| 20260505014607 | 71 | 166 | 3.5 | 4.3 | 0.00 | 0.00 | 0.00 | 10 | 1006.8 |
| 20260505014104 | 71 | 192 | 5.2 | 6.1 | 0.00 | 0.00 | 0.00 | 10 | 1006.7 |
| 20260505013601 | 71 | 188 | 12.2 | 17.4 | 0.00 | 0.00 | 0.00 | 10 | 1006.7 |
| 20260505013058 | 71 | 170 | 8.7 | 9.6 | 0.00 | 0.00 | 0.00 | 10 | 1006.7 |
| 20260505012556 | 71 | 203 | 4.3 | 6.1 | 0.00 | 0.00 | 0.00 | 10 | 1006.7 |
| 20260505012053 | 71 | 160 | 3.5 | 4.3 | 0.00 | 0.00 | 0.00 | 10 | 1006.7 |
| 20260505011549 | 71 | 202 | 3.5 | 5.2 | 0.00 | 0.00 | 0.00 | 10 | 1006.7 |
| 20260505011046 | 72 | 192 | 7.0 | 7.8 | 0.00 | 0.00 | 0.00 | 10 | 1006.8 |
| 20260505010541 | 72 | 226 | 7.0 | 7.8 | 0.00 | 0.00 | 0.00 | 10 | 1006.9 |
| 20260505010038 | 72 | 216 | 5.2 | 7.0 | 0.00 | 0.00 | 0.00 | 10 | 1006.8 |
| 20260505005534 | 72 | 221 | 6.1 | 7.8 | 0.00 | 0.00 | 0.00 | 10 | 1006.9 |
| 20260505005032 | 72 | 175 | 6.1 | 8.7 | 0.00 | 0.00 | 0.00 | 10 | 1007.0 |
| 20260505004529 | 72 | 189 | 7.0 | 9.6 | 0.00 | 0.00 | 0.00 | 10 | 1007.2 |
| 20260505004020 | 72 | 224 | 10.4 | 12.2 | 0.00 | 0.00 | 0.00 | 10 | 1007.2 |
| 20260505003518 | 72 | 204 | 9.6 | 11.3 | 0.00 | 0.00 | 0.00 | 10 | 1007.2 |
| 20260505003015 | 72 | 225 | 10.4 | 12.2 | 0.00 | 0.00 | 0.00 | 10 | 1007.3 |
| 20260505002510 | 73 | 205 | 5.2 | 6.1 | 0.00 | 0.00 | 0.00 | 10 | 1007.4 |
| 20260505002009 | 73 | 218 | 7.8 | 11.3 | 0.00 | 0.00 | 0.00 | 10 | 1007.3 |
| 20260505001506 | 73 | 148 | 9.6 | 12.2 | 0.00 | 0.00 | 0.00 | 10 | 1007.5 |
| 20260505001003 | 73 | 204 | 7.8 | 8.7 | 0.00 | 0.00 | 0.00 | 10 | 1007.2 |
| 20260505000500 | 73 | 215 | 6.1 | 7.0 | 0.00 | 0.00 | 0.00 | 10 | 1007.3 |
| 20260504235957 | 73 | 196 | 6.1 | 6.1 | 0.00 | 0.00 | 0.00 | 10 | 1007.5 |
| 20260504235454 | 73 | 239 | 6.1 | 7.8 | 0.00 | 0.00 | 0.00 | 10 | 1007.3 |
| 20260504234951 | 73 | 250 | 7.8 | 8.7 | 0.00 | 0.00 | 0.00 | 10 | 1007.5 |
| 20260504234448 | 73 | 243 | 7.0 | 7.8 | 0.00 | 0.00 | 0.00 | 10 | 1007.5 |
| 20260504233944 | 73 | 241 | 7.0 | 7.8 | 0.00 | 0.00 | 0.00 | 10 | 1007.5 |
| 20260504233440 | 73 | 228 | 9.6 | 12.2 | 0.00 | 0.00 | 0.00 | 10 | 1007.5 |
| 20260504232937 | 73 | 247 | 11.3 | 12.2 | 0.00 | 0.00 | 0.00 | 10 | 1007.5 |
| 20260504232434 | 73 | 247 | 8.7 | 9.6 | 0.00 | 0.00 | 0.00 | 10 | 1007.6 |
| 20260504231931 | 73 | 230 | 10.4 | 12.2 | 0.00 | 0.00 | 0.00 | 10 | 1007.4 |
| 20260504231428 | 73 | 241 | 11.3 | 13.0 | 0.00 | 0.00 | 0.00 | 10 | 1007.6 |
| 20260504230924 | 72 | 238 | 12.2 | 13.0 | 0.00 | 0.00 | 0.00 | 10 | 1007.5 |
| 20260504230421 | 73 | 251 | 7.8 | 8.7 | 0.00 | 0.00 | 0.00 | 10 | 1007.6 |
| 20260504225920 | 72 | 238 | 9.6 | 11.3 | 0.00 | 0.00 | 0.00 | 10 | 1007.6 |
| 20260504225416 | 72 | 239 | 9.6 | 9.6 | 0.00 | 0.00 | 0.00 | 10 | 1007.5 |
| 20260504224914 | 72 | 243 | 13.0 | 14.8 | 0.00 | 0.00 | 0.00 | 10 | 1007.6 |
| 20260504224410 | 72 | 248 | 12.2 | 15.6 | 0.00 | 0.00 | 0.00 | 10 | 1007.5 |
| 20260504223908 | 73 | 229 | 14.8 | 17.4 | 0.00 | 0.00 | 0.00 | 10 | 1007.5 |
| 20260504223403 | 73 | 225 | 12.2 | 13.9 | 0.00 | 0.00 | 0.00 | 10 | 1007.7 |
| 20260504222859 | 72 | 247 | 13.9 | 15.6 | 0.00 | 0.00 | 0.00 | 10 | 1007.4 |
| 20260504222356 | 71 | 248 | 8.7 | 11.3 | 0.00 | 0.00 | 0.00 | 10 | 1007.5 |
| 20260504221855 | 75 | 229 | 8.7 | 9.6 | 0.00 | 0.00 | 0.00 | 10 | 1007.6 |
| 20260504221350 | 74 | 226 | 4.3 | 5.2 | 0.00 | 0.00 | 0.00 | 10 | 1007.4 |
| 20260504220847 | 74 | 269 | 9.6 | 12.2 | 0.00 | 0.00 | 0.00 | 10 | 1007.8 |
| 20260504220344 | 74 | 212 | 6.1 | 11.3 | 0.00 | 0.00 | 0.00 | 10 | 1007.5 |
| 20260504215841 | 75 | 267 | 7.8 | 9.6 | 0.00 | 0.00 | 0.00 | 10 | 1007.5 |
| 20260504215337 | 74 | 206 | 0.9 | 1.7 | 0.00 | 0.00 | 0.00 | 10 | 1007.7 |
| 20260504214834 | 74 | 224 | 4.3 | 6.1 | 0.00 | 0.00 | 0.00 | 10 | 1008.1 |
| 20260504214331 | 74 | 238 | 4.3 | 5.2 | 0.00 | 0.00 | 0.00 | 10 | 1007.8 |
| 20260504213827 | 75 | 253 | 3.5 | 5.2 | 0.00 | 0.00 | 0.00 | 10 | 1008.0 |
| 20260504213323 | 74 | 252 | 1.7 | 1.7 | 0.00 | 0.00 | 0.00 | 10 | 1008.1 |
| 20260504212821 | 75 | 175 | 5.2 | 6.1 | 0.00 | 0.00 | 0.00 | 10 | 1008.2 |
| 20260504212317 | 74 | 230 | 5.2 | 6.1 | 0.00 | 0.00 | 0.00 | 10 | 1008.3 |
| 20260504211815 | 75 | 264 | 6.1 | 7.8 | 0.00 | 0.00 | 0.00 | 10 | 1008.5 |
| 20260504211310 | 74 | 271 | 7.0 | 7.8 | 0.00 | 0.00 | 0.00 | 10 | 1008.3 |
| 20260504210808 | 74 | 234 | 6.1 | 7.0 | 0.00 | 0.00 | 0.00 | 10 | 1008.4 |
| 20260504210305 | 74 | 274 | 6.1 | 7.8 | 0.00 | 0.00 | 0.00 | 10 | 1008.5 |
| 20260504205802 | 73 | 232 | 6.1 | 7.8 | 0.00 | 0.00 | 0.00 | 10 | 1008.4 |
| 20260504205300 | 74 | 275 | 4.3 | 5.2 | 0.00 | 0.00 | 0.00 | 10 | 1008.6 |
| 20260504204758 | 74 | 253 | 3.5 | 5.2 | 0.00 | 0.00 | 0.00 | 10 | 1008.8 |
| 20260504204256 | 74 | 260 | 3.5 | 4.3 | 0.00 | 0.00 | 0.00 | 10 | 1008.8 |
| 20260504203755 | 74 | 336 | 7.0 | 7.8 | 0.00 | 0.00 | 0.00 | 10 | 1008.6 |
| 20260504203253 | 74 | 252 | 4.3 | 5.2 | 0.00 | 0.00 | 0.00 | 10 | 1008.9 |
| 20260504202752 | 73 | 287 | 4.3 | 6.1 | 0.00 | 0.00 | 0.00 | 10 | 1008.8 |
| 20260504202250 | 73 | 268 | 4.3 | 7.8 | 0.00 | 0.00 | 0.00 | 10 | 1008.6 |
| 20260504201747 | 74 | 216 | 0.9 | 1.7 | 0.00 | 0.00 | 0.00 | 10 | 1008.9 |
| 20260504201244 | 73 | 241 | 2.6 | 2.6 | 0.00 | 0.00 | 0.00 | 10 | 1009.0 |
| 20260504200742 | 73 | 331 | 3.5 | 4.3 | 0.00 | 0.00 | 0.00 | 10 | 1009.1 |
| 20260504200237 | 73 | 266 | 7.0 | 7.8 | 0.00 | 0.00 | 0.00 | 10 | 1009.0 |
| 20260504195734 | 72 | 224 | 4.3 | 6.1 | 0.00 | 0.00 | 0.00 | 10 | 1009.1 |
| 20260504195230 | 73 | 245 | 7.0 | 7.8 | 0.00 | 0.00 | 0.00 | 10 | 1009.1 |
| 20260504194728 | 72 | 280 | 5.2 | 6.1 | 0.00 | 0.00 | 0.00 | 10 | 1009.3 |
| 20260504194223 | 72 | 222 | 4.3 | 6.1 | 0.00 | 0.00 | 0.00 | 10 | 1009.2 |
| 20260504193720 | 73 | 254 | 6.1 | 7.0 | 0.00 | 0.00 | 0.00 | 10 | 1009.3 |
| 20260504193218 | 73 | 246 | 4.3 | 5.2 | 0.00 | 0.00 | 0.00 | 10 | 1009.5 |
| 20260504192716 | 71 | 242 | 7.0 | 7.8 | 0.00 | 0.00 | 0.00 | 10 | 1009.5 |
| 20260504192213 | 72 | 246 | 6.1 | 7.0 | 0.00 | 0.00 | 0.00 | 10 | 1009.7 |
| 20260504191712 | 73 | 238 | 7.8 | 8.7 | 0.00 | 0.00 | 0.00 | 10 | 1009.5 |
| 20260504191208 | 71 | 241 | 3.5 | 4.3 | 0.00 | 0.00 | 0.00 | 10 | 1009.8 |
| 20260504190703 | 72 | 310 | 4.3 | 7.8 | 0.00 | 0.00 | 0.00 | 10 | 1009.7 |
| 20260504190200 | 72 | 273 | 6.1 | 7.8 | 0.00 | 0.00 | 0.00 | 10 | 1009.9 |
| 20260504185657 | 72 | 254 | 6.1 | 7.8 | 0.00 | 0.00 | 0.00 | 10 | 1009.8 |
| 20260504185153 | 72 | 289 | 4.3 | 6.1 | 0.00 | 0.00 | 0.00 | 10 | 1009.9 |
| 20260504184649 | 72 | 248 | 5.2 | 6.1 | 0.00 | 0.00 | 0.00 | 10 | 1009.9 |
| 20260504184144 | 72 | 309 | 1.7 | 2.6 | 0.00 | 0.00 | 0.00 | 10 | 1009.9 |
| 20260504183642 | 72 | 257 | 5.2 | 7.0 | 0.00 | 0.00 | 0.00 | 10 | 1009.8 |
| 20260504183139 | 73 | 260 | 5.2 | 6.1 | 0.00 | 0.00 | 0.00 | 10 | 1010.0 |
| 20260504182637 | 72 | 278 | 4.3 | 6.1 | 0.00 | 0.00 | 0.00 | 10 | 1010.1 |
| 20260504182135 | 72 | 254 | 7.0 | 7.8 | 0.00 | 0.00 | 0.00 | 10 | 1010.2 |
| 20260504181632 | 73 | 302 | 5.2 | 8.7 | 0.00 | 0.00 | 0.00 | 10 | 1009.9 |
| 20260504181129 | 71 | 220 | 2.6 | 2.6 | 0.00 | 0.00 | 0.00 | 10 | 1010.3 |
| 20260504180628 | 73 | 281 | 3.5 | 4.3 | 0.00 | 0.00 | 0.00 | 10 | 1010.3 |
| 20260504180126 | 71 | 212 | 1.7 | 1.7 | 0.00 | 0.00 | 0.00 | 10 | 1010.5 |
| 20260504175623 | 71 | 315 | 3.5 | 4.3 | 0.00 | 0.00 | 0.00 | 10 | 1010.5 |
| 20260504175120 | 72 | 170 | 4.3 | 6.1 | 0.00 | 0.00 | 0.00 | 10 | 1010.5 |
| 20260504174618 | 72 | 126 | 2.6 | 2.6 | 0.00 | 0.00 | 0.00 | 10 | 1010.7 |
| 20260504174114 | 72 | 95 | 2.6 | 4.3 | 0.00 | 0.00 | 0.00 | 10 | 1010.5 |
| 20260504173611 | 71 | 184 | 2.6 | 4.3 | 0.00 | 0.00 | 0.00 | 10 | 1010.5 |
| 20260504173109 | 71 | 226 | 4.3 | 6.1 | 0.00 | 0.00 | 0.00 | 10 | 1010.8 |
| 20260504172605 | 71 | 138 | 4.3 | 5.2 | 0.00 | 0.00 | 0.00 | 10 | 1010.6 |
| 20260504172102 | 71 | 189 | 0.0 | 0.9 | 0.00 | 0.00 | 0.00 | 10 | 1010.8 |
| 20260504171558 | 71 | 159 | 2.6 | 4.3 | 0.00 | 0.00 | 0.00 | 10 | 1010.6 |
| 20260504171055 | 70 | 163 | 1.7 | 2.6 | 0.00 | 0.00 | 0.00 | 10 | 1010.8 |
| 20260504170551 | 70 | 209 | 5.2 | 7.0 | 0.00 | 0.00 | 0.00 | 10 | 1010.8 |
| 20260504150935 | 65 | 137 | 6.1 | 7.8 | 0.00 | 0.00 | 0.00 | 10 | 1010.9 |
| 20260504150432 | 66 | 128 | 3.5 | 6.1 | 0.00 | 0.00 | 0.00 | 10 | 1011.0 |
| 20260504140852 | 63 | 169 | 4.3 | 7.8 | 0.00 | 0.00 | 0.00 | 10 | 1011.3 |
| 20260504140349 | 62 | 132 | 4.3 | 5.2 | 0.00 | 0.00 | 0.00 | 10 | 1011.1 |
| 20260504130812 | 53 | 134 | 1.7 | 1.7 | 0.00 | 0.00 | 0.00 | 10 | 1011.3 |
| 20260504130308 | 53 | 167 | 0.9 | 0.9 | 0.00 | 0.00 | 0.00 | 10 | 1011.3 |
| 20260504120232 | 53 | 105 | 1.7 | 1.7 | 0.00 | 0.00 | 0.00 | 10 | 1011.3 |
| 20260504110659 | 58 | 157 | 2.6 | 2.6 | 0.00 | 0.00 | 0.00 | 10 | 1011.3 |
| 20260504110155 | 58 | 126 | 2.6 | 4.3 | 0.00 | 0.00 | 0.00 | 10 | 1011.5 |
| 20260504100615 | 57 | 174 | 3.5 | 4.3 | 0.00 | 0.00 | 0.00 | 10 | 1011.0 |
| 20260504100114 | 56 | 153 | 3.5 | 4.3 | 0.00 | 0.00 | 0.00 | 10 | 1011.0 |
| 20260504081506 | 53 | 103 | 1.7 | 1.7 | 0.00 | 0.00 | 0.00 | 10 | 1010.0 |
| 20260504081001 | 53 | 131 | 1.7 | 1.7 | 0.00 | 0.00 | 0.00 | 10 | 1010.3 |
| 20260504080459 | 53 | 107 | 1.7 | 1.7 | 0.00 | 0.00 | 0.00 | 10 | 1010.3 |
| 20260504050305 | 62 | 110 | 5.2 | 6.1 | 0.00 | 0.00 | 0.00 | 10 | 1010.5 |
| 20260504045802 | 62 | 123 | 6.1 | 7.0 | 0.00 | 0.00 | 0.00 | 10 | 1010.8 |
| 20260504045257 | 62 | 110 | 4.3 | 6.1 | 0.00 | 0.00 | 0.00 | 10 | 1010.7 |
| 20260504044755 | 62 | 113 | 4.3 | 7.0 | 0.00 | 0.00 | 0.00 | 10 | 1010.6 |
| 20260504044252 | 62 | 130 | 4.3 | 6.1 | 0.00 | 0.00 | 0.00 | 10 | 1010.9 |
| 20260504043749 | 63 | 129 | 5.2 | 6.1 | 0.00 | 0.00 | 0.00 | 10 | 1010.8 |
| 20260504043246 | 62 | 121 | 5.2 | 6.1 | 0.00 | 0.00 | 0.00 | 10 | 1010.8 |
| 20260504042744 | 63 | 124 | 3.5 | 4.3 | 0.00 | 0.00 | 0.00 | 10 | 1010.6 |
| 20260504042239 | 63 | 156 | 1.7 | 1.7 | 0.00 | 0.00 | 0.00 | 10 | 1010.8 |
| 20260504041730 | 63 | 131 | 3.5 | 5.2 | 0.00 | 0.00 | 0.00 | 10 | 1010.8 |
| 20260504041226 | 63 | 158 | 0.9 | 0.9 | 0.00 | 0.00 | 0.00 | 10 | 1010.7 |
| 20260504040723 | 64 | 168 | 0.0 | 0.9 | 0.00 | 0.00 | 0.00 | 10 | 1010.8 |
| 20260504040220 | 64 | 160 | 0.9 | 1.7 | 0.00 | 0.00 | 0.00 | 10 | 1010.9 |
| 20260504035716 | 64 | 164 | 0.9 | 0.9 | 0.00 | 0.00 | 0.00 | 10 | 1010.8 |